HJ3GNC-15 Weather Reports


Display with metric or nautical units.
time (UTC)temp
F
wind
direction
speed
MPH
gust
MPH
rain 1hr
in
rain 24hr
in
rain mn
in
humidity
%
barometer
mb
20260505014012 60 259 0.0 0.0 0.00 0.00 0.00 92 1016.0
20260505012428 60 259 0.0 0.0 0.00 0.00 0.00 91 1015.0
20260505010843 60 259 0.0 0.0 0.00 0.00 0.00 91 1015.0
20260505005259 60 259 0.0 0.0 0.00 0.00 0.00 93 1015.0
20260505003706 60 259 0.0 0.0 0.00 0.00 0.00 93 1015.0
20260505002059 61 258 0.0 0.0 0.00 0.00 0.00 91 1014.0
20260505000517 61 258 0.0 0.0 0.00 0.00 0.00 93 1013.0
20260504234935 61 258 0.0 0.0 0.00 0.00 0.00 93 1013.0
20260504233355 61 258 0.0 0.0 0.00 0.00 0.00 93 1013.0
20260504231812 62 216 0.0 0.0 0.00 0.00 0.00 87 1012.0
20260504224643 62 216 0.0 0.0 0.00 0.00 0.00 89 1012.0
20260504223102 62 216 0.0 0.0 0.00 0.00 0.00 89 1012.0
20260504221520 66 174 0.0 0.0 0.00 0.00 0.00 79 1011.0
20260504215936 66 174 0.0 0.0 0.00 0.00 0.00 81 1011.0
20260504214352 66 174 0.0 0.0 0.00 0.00 0.00 82 1011.0
20260504212806 66 170 0.0 0.0 0.00 0.00 0.00 75 1010.0
20260504211223 66 170 0.0 0.0 0.00 0.00 0.00 75 1010.0
20260504205638 66 170 0.0 0.0 0.00 0.00 0.00 77 1010.0
20260504204043 82 170 0.0 0.0 0.00 0.00 0.00 64 1010.0
20260504202458 81 157 0.0 0.0 0.00 0.00 0.00 64 1011.0
20260504200845 80 157 0.0 0.0 0.00 0.00 0.00 64 1011.0
20260504195301 79 157 0.0 0.0 0.00 0.00 0.00 64 1011.0
20260504193719 78 157 0.0 0.0 0.00 0.00 0.00 64 1011.0
20260504192140 77 151 0.0 0.0 0.00 0.00 0.00 64 1011.0
20260504190549 76 151 0.0 0.0 0.00 0.00 0.00 64 1011.0
20260504185008 75 151 0.0 0.0 0.00 0.00 0.00 64 1011.0
20260504183426 74 151 0.0 0.0 0.00 0.00 0.00 64 1011.0
20260504181842 73 223 0.0 0.0 0.00 0.00 0.00 64 1013.0
20260504180300 72 223 0.0 0.0 0.00 0.00 0.00 64 1012.0
20260504174717 71 155 0.0 0.0 0.00 0.00 0.00 64 1012.0
20260504173134 70 155 0.0 0.0 0.00 0.00 0.00 64 1012.0
20260504171549 68 233 0.0 0.0 0.00 0.00 0.00 74 1014.0
20260504151001 64 116 0.0 0.0 0.00 0.00 0.00 72 1015.0
20260504141252 63 163 0.0 0.0 0.00 0.00 0.00 71 1015.0
20260504100445 56 276 0.0 0.0 0.00 0.00 0.00 90 1015.0
20260504081332 57 275 0.0 0.0 0.00 0.00 0.00 89 1014.0
20260504050158 58 263 0.0 0.0 0.00 0.00 0.00 90 1016.0
20260504044612 58 263 0.0 0.0 0.00 0.00 0.00 92 1016.0
20260504043027 58 263 0.0 0.0 0.00 0.00 0.00 92 1016.0
20260504041442 59 258 0.0 0.0 0.00 0.00 0.00 89 1016.0
20260504035858 59 258 0.0 0.0 0.00 0.00 0.00 91 1017.0
20260504034303 59 258 0.0 0.0 0.00 0.00 0.00 91 1017.0
20260504032714 60 261 0.0 0.0 0.00 0.00 0.00 89 1016.0
20260504031128 60 261 0.0 0.0 0.00 0.00 0.00 90 1016.0
20260504025530 59 261 0.0 0.0 0.00 0.00 0.00 92 1017.0
20260504023904 60 261 0.0 0.0 0.00 0.00 0.00 92 1017.0
20260504022314 60 258 0.0 0.0 0.00 0.00 0.00 90 1016.0
20260504020712 60 258 0.0 0.0 0.00 0.00 0.00 90 1016.0
20260504015122 60 258 0.0 0.0 0.00 0.00 0.00 92 1016.0